www.pogodaiklimat.ru
ПОГОДА в Камарило
Время
и дата
02:18 20.07
02:32 20.07
02:41 20.07
02:55 20.07
03:02 20.07
03:25 20.07
03:48 20.07
03:55 20.07
04:04 20.07
04:09 20.07
04:30 20.07
04:55 20.07
05:02 20.07
05:24 20.07
05:31 20.07
05:45 20.07
05:55 20.07
06:26 20.07
06:33 20.07
06:49 20.07
06:50 20.07
06:55 20.07
07:10 20.07
07:23 20.07
07:55 20.07
08:17 20.07
08:55 20.07
09:55 20.07
10:55 20.07
11:55 20.07
12:55 20.07
13:55 20.07
14:55 20.07
15:55 20.07
16:55 20.07
17:55 20.07
18:55 20.07
19:55 20.07
20:55 20.07
21:55 20.07
22:55 20.07
23:55 20.07
00:55 21.07
01:55 21.07
02:55 21.07
03:55 21.07
04:55 21.07
05:55 21.07
Ветер
(напр.,м/с)
Видим. Явления Облачность Т
(С)
Тd
(С)
f
(%)
Тe
(С)
Тes
(С)
Комфортность P
(гПа)
Po
(гПа)
Тmin
(С)
Tmax
(С)
R
(мм)
R24
(мм)
S
(см)
штиль 0 3 км дымка 10/10 60 м +17.8 +16.7 93 +18 +18 1010.3
штиль 0 2 км дымка 10/10 90 м +17.8 +16.7 93 +18 +18 1010.3
штиль 0 3 км дымка 10/10 60 м +18.3 +16.7 90 +19 +19 1010.3
штиль 0 4 км дымка 10/10 90 м +17.8 +16.1 90 +18 +18 1013.9 1010.3
штиль 0 5 км дымка 10/10 90 м +17.8 +16.1 90 +18 +18 1010.3
штиль 0 3 км дымка 10/10 90 м +18.3 +16.1 87 +19 +19 1010.0
штиль 0 3 км дымка 10/10 90 м +18.3 +16.1 87 +19 +19 1010.3
штиль 0 3 км дымка 10/10 60 м +18.3 +16.1 87 +19 +19 1013.9 1010.3 +17.8 +18.3
штиль 0 3 км дымка 10/10 60 м +18.3 +16.1 87 +19 +19 1010.3
штиль 0 2 км дымка 10/10 60 м +18.3 +16.1 87 +19 +19 1010.3
ЮЗ 2 1 км дымка 10/10 60 м +17.8 +16.1 90 +18 +18 1010.3
С 2 800 м туман ?/? +17.8 +16.1 90 +18 +18 1014.3 1010.7
СЗ 2 400 м туман ?/? +17.8 +16.1 90 +18 +18 1010.7
штиль 0 800 м туман ?/? +17.8 +16.1 90 +18 +18 1010.7
штиль 0 400 м туман ?/? +17.2 +16.1 93 +17 +17 1011.0
СВ 2 800 м туман ?/? +17.2 +16.1 93 +18 +18 1011.0
штиль 0 800 м туман ?/? +17.8 +16.1 90 +18 +18 1014.7 1011.0
штиль 0 2 км дымка 10/10 60 м +17.2 +16.1 93 +17 +17 1011.3
штиль 0 800 м туман 10/10 60 м +17.8 +16.1 90 +18 +18 1011.3
штиль 0 3 км дымка 10/10 60 м +18.0 +16.0 88 +18 +18 1011.3
штиль 0 3 км дымка 10/10 60 м +18.0 +16.0 88 +18 +18 1011.3
штиль 0 5 км дымка 10/10 60 м +17.8 +16.1 90 +18 +18 1015.3 1011.7
штиль 0 3 км дымка 10/10 90 м +17.8 +16.1 90 +18 +18 1011.7
З 2 6 км дымка 10/10 90 м +17.8 +16.7 93 +18 +18 1011.7
штиль 0 10 км дымка 10/10 180 м +19.4 +17.2 87 +21 +21 комфорт 1015.3 1011.7
штиль 0 11 км 2/2 180 м +20.6 +17.8 84 +24 +32 комфорт 1011.3
нст 2 16 км ясно +23.3 +18.3 73 +29 +37 душно 1015.1 1011.3
З 3 16 км ясно +25.6 +19.4 69 +31 +42 очень
душно
1015.0 1011.3 +17.2 +25.6
нст 3 16 км ясно +25.6 +19.4 69 +31 +45 очень
душно
1014.9 1011.3
нст 3 16 км ясно +25.0 +18.9 69 +30 +47 душно 1014.8 1011.0
ЮЗ 4 16 км ясно +25.6 +19.4 69 +31 +45 очень
душно
1014.4 1010.7
З 4 16 км ясно +25.6 +19.4 69 +31 +44 очень
душно
1014.0 1010.3
З 4 16 км ясно +26.1 +20.0 69 +32 +43 очень
душно
1013.4 1009.7
З 3 16 км ясно +26.1 +20.6 72 +33 +43 очень
душно
1012.8 1009.3 +25.0 +26.7
З 3 16 км ясно +25.6 +20.0 71 +31 +37 очень
душно
1012.2 1008.6
З 3 16 км ясно +23.9 +19.4 76 +29 +32 душно 1012.5 1009.0
З 2 16 км ясно +21.7 +18.9 84 +27 +27 душно 1012.6 1009.0
З 3 11 км ясно +20.0 +17.8 87 +23 +23 комфорт 1012.8 1009.0
З 3 10 км дымка ясно +19.4 +17.2 87 +22 +22 комфорт 1012.9 1009.3
З 2 10 км дымка ясно +18.9 +16.7 87 +21 +21 комфорт 1012.8 1009.0 +18.9 +26.7
штиль 0 10 км дымка ясно +18.9 +16.7 87 +20 +20 1012.8 1009.3
штиль 0 10 км дымка ясно +18.9 +16.7 87 +20 +20 1012.7 1009.0
штиль 0 10 км дымка ясно +18.9 +16.7 87 +20 +20 1012.5 1009.0
штиль 0 10 км дымка ясно +18.3 +16.1 87 +19 +19 1012.5 1009.0
штиль 0 10 км дымка ясно +18.3 +16.1 87 +19 +19 1012.2 1008.6
штиль 0 10 км дымка ясно +17.8 +15.6 87 +18 +18 1012.3 1008.6 +17.8 +19.4
штиль 0 10 км дымка ясно +17.8 +15.6 87 +18 +18 1012.5 1009.0
штиль 0 10 км дымка ясно +18.3 +16.1 87 +19 +19 1012.9 1009.3
Местоположение метеостанции Camarillo Airport: широта 34.2167 долгота -119.0833 высота над уровнем моря 23 м.
В архиве по умолчанию представлена погода в Камарило за последние 1-2 суток. Обновление информации о фактической погоде в базе происходит ежечасно! Архивные данные за месяц целиком и за предыдущие месяцы Вы можете получить, выбрав интересующий диапазон дат из раскрывающегося списка и нажав кнопку "Ввод!".
Внимание! Архив погоды МЕТАР в базе сайта по станциям, не включенным в климатический монитор, хранится не более 60 дней. Нет смысла пытаться выбрать более раннюю дату.
*Определитесь, кто Вы:
Внимание! Время в таблицах - местное (без учета летнего времени). Для получения всемирного времени необходимо вычесть поправку, которая равна -8 ч.
Смотрите также архив погоды в соседних городах и на ближайших метеорологических станциях:
Партнеры нашего сайта:      
Пояснения к столбцам:
  • Ветер - указаны скорость ветра в м/с - средняя за 10 мин, порывы в срок и между сроками (в фигурных скобках) и направление, откуда дует ветер: С - северный,
  • СВ - северо-восточный, В - восточный, ЮВ - юго-восточный, Ю - южный, ЮЗ - юго-западный, З - западный, СЗ - северо-западный.
  • Видимость - горизонтальная дальность видимости в метрах или километрах. При видимости от 1 до 10 км при отсутствии осадков обычно наблюдается дымка, при ухудшении видимости до 1 км и менее - туман. В сухую погоду видимость может ухудшаться дымом, пылью или мглою.
  • Явления - указаны атмосферные явления, наблюдавшиеся в срок или в последний час перед сроком; фигурными скобками обозначены явления, наблюдавшиеся между сроками (за 1-3 часа до срока); квадратными скобками обозначены град или гололедные отложения с указанием их диаметра в мм.
  • Облачность - указаны через наклонную черту общая и нижняя облачность в баллах и высота нижней границы облаков в метрах; квадратными скобками обозначены формы облаков: Ci - перистые, Cs - перисто-слоистые, Cc - перисто-кучевые, Ac - высококучевые, As - высокослоистые, Sc - слоисто-кучевые, Ns - слоисто-дождевые, Cu - кучевые, Cb - кучево-дождевые. Подробнее классификацию облаков см. в Атласе облаков (PDF).
  • T - Температура воздуха - температура, измеренная на высоте 2 м над землей.
  • Td - Температура точки росы - температура, при понижении до которой содержащийся в воздухе водяной пар достигнет насыщения.
  • f - Относительная влажность воздуха - влажноcть воздуха, измеренная на высоте 2 м над землей.
  • Te - Эффективная температура - температура, которую ощущает одетый по сезону человек в тени. Характеристика душности погоды. При расчете учитывается влияние влажности воздуха и скорости ветра на теплоощущения человека.
  • Tes - Эффективная температура на солнце - температура, которую ощущает человек, с поправкой на солнечный нагрев. Характеристика знойности погоды. Зависит от высоты солнца над горизонтом, облачности и скорости ветра. Ночью, в пасмурную погоду, а также при ветре 12 м/с и более поправка равна нулю.
  • P - Атмосферное давление - приведенное к уровню моря атмосферное давление.
  • Po - Атмосферное давление - измеренное на уровне метеостанции атмосферное давление.
  • Tmin - Минимальная температура - минимум температуры воздуха на высоте 2 м над землей.
  • Tmax - Максимальная температура - максимум температуры воздуха на высоте 2 м над землей.
  • R - Количество осадков - Количество выпавших осадков за период времени, мм. При наведении курсора мыши на число - период времени, за который выпало указанное количество осадков.
  • R24 - Количество осадков - Количество выпавших осадков за 24 часа, мм.
  • S - Снежный покров - Высота снежного покрова, см. При наведении курсора мыши на число - состояние снежного покрова и степень покрытия местности в баллах.